Central Il Rgnl Arpt at Bloomington-Normal Airport
KBMI : now visible

Airfield :











YOU CAN JOIN US ON...

 
LOGIN :

Register | Disclaimer

   EN    FR    IT 

 









Legend :    VFR   Marginal VFR   IFR   Intensive IFR   Very Intensive IFR
Visi :
Ceiling :
>= 8 km
>= 3000ft
5 to 8 km
1000 to 3000 ft
1500m to 5 km
500 to 1000 ft
800 to 1500m
200 to 500 ft
< 800m
< 200 ft
Symbols :   Thunderstorms  Fog  Heavy snow  Heavy precipitations  Wind > 20 kt






- Airport Elevation : 871 ft
- IATA code : BMI


KBMI - Central Il Rgnl Arpt at Bloomington-Normal

CURRENT METAR :
  • 212356Z 27012KT 10SM OVC012 11/09 A3006 RMK AO2 SLP179 T01060089 10111 20094 53010

EXPIRED METARs :
  • 212256Z 28011KT 10SM OVC012 11/08 A3004 RMK AO2 SLP173 T01060083
  • 212156Z 27010KT 10SM OVC012 10/08 A3004 RMK AO2 SLP172 T01000078

TAF KBMI
Valid from the 22 at 00:00 until the 23 at 00:00 UTC


212321Z 2200/2224 29009KT 6SM -DZ OVC012
FM221100 33006KT P6SM OVC020
FM221800 30009KT P6SM BKN035
KZAU FIR / North America



MET'MAP, your aeronautical weather chart ! - Copyright ORBIFLY December 2007 - Disclaimer

ORBIFLY MET'MAP TEAM :

Programming & Development : Alexandra Zaïnal
Concept & original design : Baudouin d'Aumeries
Assistance for programming : Marc-Olivier Méhu
Technical & hardware support : Manuel Goepfert

Contact : metmap@orbifly.com




SOURCES & CREDITS :

   NOAA       Earth
Advisory